Location: Newcastle Observatory
(43.9158°N, 78.5831°W)
Time: 18:11:55
(UTC-04:00)

Amateur Radio Satellites - All Passes

Search period start: 25 July 2014 17:41
Search period end: 26 July 2014 17:41
Location: Newcastle Observatory, 43.9158°N, 78.5831°W

Satellite Date Start Highest point End Downlink Frequencies (MHz)
Time Altitude Azimuth
AO-7 25 Jul 17:51:44 17:59:10 35° 263° (W) 18:06:41 29.400 - 29.500 MHz
OPAL 25 Jul 17:52:10 17:57:10 65° 290° (WNW) 18:02:13 ?
KITSAT 1 25 Jul 18:00:23 18:07:16 32° 253° (WSW) 18:14:07 435.175 FM
UOSAT-12 25 Jul 18:33:26 18:35:10 12° 332° (NNW) 18:36:54 437.025 FM, 437.400 FM
SO-67 25 Jul 18:50:38 18:53:22 22° 69° (ENE) 18:56:08 435.3500 MHz FM
Hamsat 25 Jul 18:57:19 19:01:15 41° 262° (W) 19:05:14 145.90 MHz
Saudisat 1A 25 Jul 19:02:33 19:05:39 19° 248° (WSW) 19:08:43 436.775 MHz
HO-68 25 Jul 19:02:41 19:04:45 11° 45° (NE) 19:06:48 435.675 MHz FM
JAS-2 25 Jul 19:06:03 19:13:50 65° 259° (W) 19:21:16 435.800 - 435.900 CW/SSB, 435.910 FM
RS-15 25 Jul 19:56:48 20:05:25 25° 8° (N) 20:14:08 29.354 - 29.394 USB, Beacon 29.352 USB
STRAND 1 25 Jul 20:09:05 20:14:14 80° 104° (ESE) 20:19:20 ?
SO-67 25 Jul 20:23:36 20:26:22 22° 265° (W) 20:29:10 435.3500 MHz FM
HO-68 25 Jul 20:43:58 20:50:51 52° 66° (ENE) 20:57:44 435.675 MHz FM
UKube-1 25 Jul 20:55:25 20:59:14 30° 68° (ENE) 21:03:05 145.840 MHz, 145.915 MHz
JAS-2 25 Jul 20:57:13 21:00:01 12° 276° (W) 21:02:47 435.800 - 435.900 CW/SSB, 435.910 FM
SO-50 25 Jul 21:17:00 21:20:41 22° 40° (NE) 21:24:23 436.795 FM
Oscar 11 25 Jul 21:44:16 21:48:23 46° 72° (ENE) 21:52:32 145.825 FM, Beacon 2401.500 USB
MaSat-1 25 Jul 21:47:13 21:50:07 19° 102° (ESE) 21:53:19 437.345 MHz
STRAND 1 25 Jul 21:49:57 21:52:45 15° 302° (WNW) 21:55:33 ?
FUNcube-1 25 Jul 21:56:16 21:59:46 24° 67° (ENE) 22:03:13 145.950 - 145.970 MHz USB
RS-15 25 Jul 22:10:49 22:21:22 48° 41° (NE) 22:32:10 29.354 - 29.394 USB, Beacon 29.352 USB
UKube-1 25 Jul 22:31:44 22:35:26 27° 264° (W) 22:39:09 145.840 MHz, 145.915 MHz
HO-68 25 Jul 22:32:27 22:38:46 33° 264° (W) 22:45:08 435.675 MHz FM
SO-50 25 Jul 22:56:57 23:01:40 66° 239° (WSW) 23:06:27 436.795 FM
Lituanica SAT-1 25 Jul 23:17:26 23:18:20 12° 136° (SE) 23:19:14 437.275 MHz beacon
Oscar 11 25 Jul 23:22:03 23:24:50 17° 268° (W) 23:27:38 145.825 FM, Beacon 2401.500 USB
MaSat-1 25 Jul 23:23:04 23:27:00 44° 304° (NW) 23:31:33 437.345 MHz
FUNcube-1 25 Jul 23:32:06 23:36:03 33° 263° (W) 23:39:55 145.950 - 145.970 MHz USB
UOSAT-12 25 Jul 23:37:47 23:42:04 32° 45° (NE) 23:46:17 437.025 FM, 437.400 FM
RS-15 26 Jul 00:23:23 00:34:07 61° 245° (WSW) 00:45:16 29.354 - 29.394 USB, Beacon 29.352 USB
Sapphire 26 Jul 00:37:40 00:38:56 11° 101° (E) 00:40:12 437.095 MHz 1200 baud AX-25 AFSK
Lituanica SAT-1 26 Jul 00:48:38 00:50:34 39° 333° (NNW) 00:52:32 437.275 MHz beacon
PCSat 26 Jul 01:08:04 01:12:16 24° 107° (ESE) 01:16:30 145.825 MHz
UOSAT-12 26 Jul 01:17:54 01:22:16 37° 244° (WSW) 01:26:34 437.025 FM, 437.400 FM
ISS 26 Jul 01:20:19 01:23:31 43° 141° (SE) 01:26:43 145.800 FM
Oscar 16 26 Jul 01:35:02 01:37:47 14° 89° (E) 01:40:32 437.025 USB, Beacon 2401.1428
AO-27 26 Jul 02:07:25 02:09:39 13° 88° (E) 02:11:53 436.795 MHz FM
Uribyol 2 26 Jul 02:09:10 02:11:46 14° 89° (E) 02:14:22 436.500 FM
Sapphire 26 Jul 02:16:02 02:21:25 79° 119° (ESE) 02:26:52 437.095 MHz 1200 baud AX-25 AFSK
Lituanica SAT-1 26 Jul 02:22:39 02:23:26 11° 352° (N) 02:24:14 437.275 MHz beacon
JAS-1B 26 Jul 02:29:23 02:36:21 23° 84° (E) 02:42:40 435.800 - 435.900 CW/SSB
RS-15 26 Jul 02:40:26 02:44:02 12° 266° (W) 02:47:41 29.354 - 29.394 USB, Beacon 29.352 USB
Oscar 19 26 Jul 02:44:44 02:49:52 61° 101° (ESE) 02:54:58 437.125 CW, 437.150 USB
PCSat 26 Jul 02:50:01 02:55:19 54° 306° (NW) 03:00:39 145.825 MHz
AO-40 26 Jul 02:51:03 04:30:37 21° 218° (SW) 07:34:49 Beacon 2401.320
ISS 26 Jul 02:57:10 03:00:17 36° 339° (NNW) 03:03:26 145.800 FM
Oscar 16 26 Jul 03:12:32 03:17:41 74° 286° (WNW) 03:22:50 437.025 USB, Beacon 2401.1428
ITAMSAT 1 26 Jul 03:26:17 03:31:28 68° 102° (ESE) 03:36:36 435.822 SSB
TMSAT-1 26 Jul 03:26:31 03:30:34 22° 92° (E) 03:34:36 436.925 FM
AO-Echo 26 Jul 03:28:00 03:33:10 75° 102° (ESE) 03:38:07 ?
OPAL 26 Jul 03:30:32 03:34:59 35° 65° (ENE) 03:39:28 ?
AO-27 26 Jul 03:44:36 03:49:49 82° 286° (WNW) 03:54:59 436.795 MHz FM
Uribyol 2 26 Jul 03:46:39 03:51:50 76° 286° (WNW) 03:56:58 436.500 FM
Gurwin Techsat 1B 26 Jul 03:47:59 03:53:06 46° 99° (E) 03:58:10 435.225 FM
Lituanica SAT-1 26 Jul 03:55:32 03:56:31 12° 11° (N) 03:57:30 437.275 MHz beacon
AO-7 26 Jul 04:00:17 04:04:34 15° 87° (E) 04:08:48 29.400 - 29.500 MHz
Sapphire 26 Jul 04:01:28 04:05:30 21° 319° (NW) 04:09:32 437.095 MHz 1200 baud AX-25 AFSK
JAS-1B 26 Jul 04:18:25 04:28:10 88° 286° (WNW) 04:36:34 435.800 - 435.900 CW/SSB
Oscar 19 26 Jul 04:25:09 04:28:44 19° 299° (WNW) 04:32:20 437.125 CW, 437.150 USB
ISS 26 Jul 04:35:01 04:37:40 21° 359° (N) 04:40:20 145.800 FM
PCSat 26 Jul 04:37:32 04:40:00 13° 328° (NNW) 04:42:28 145.825 MHz
Oscar 16 26 Jul 04:54:50 04:56:08 11° 305° (NW) 04:57:27 437.025 USB, Beacon 2401.1428
TMSAT-1 26 Jul 05:05:39 05:10:47 51° 290° (WNW) 05:15:52 436.925 FM
ITAMSAT 1 26 Jul 05:07:03 05:10:25 18° 300° (WNW) 05:13:46 435.822 SSB
AO-Echo 26 Jul 05:08:17 05:11:16 16° 301° (WNW) 05:14:12 ?
OPAL 26 Jul 05:09:36 05:13:54 29° 262° (W) 05:18:13 ?
Uosat F 26 Jul 05:22:01 05:26:59 57° 101° (E) 05:31:53 435.120 FM
AO-27 26 Jul 05:26:26 05:28:30 12° 304° (NW) 05:30:34 436.795 MHz FM
Lituanica SAT-1 26 Jul 05:27:17 05:29:17 56° 30° (NNE) 05:31:16 437.275 MHz beacon
Gurwin Techsat 1B 26 Jul 05:28:30 05:32:48 26° 296° (WNW) 05:37:05 435.225 FM
Uribyol 2 26 Jul 05:28:52 05:30:25 11° 305° (NW) 05:31:59 436.500 FM
STRAND 1 26 Jul 05:49:21 05:52:53 19° 61° (ENE) 05:56:25 ?
AO-7 26 Jul 05:50:20 05:58:43 75° 106° (ESE) 06:07:00 29.400 - 29.500 MHz
MaSat-1 26 Jul 06:03:47 06:06:35 14° 41° (NE) 06:09:22 437.345 MHz
Oscar 10/S400 26 Jul 06:06:48 07:23:05 35° 238° (WSW) 11:37:36 145.825 - 145.975 CW/USB, Beacon 145.810 USB
JAS-1B 26 Jul 06:09:57 06:17:16 26° 309° (NW) 06:24:03 435.800 - 435.900 CW/SSB
ISS 26 Jul 06:11:57 06:15:04 34° 20° (NNE) 06:18:11 145.800 FM
JAS-2 26 Jul 06:17:12 06:20:48 16° 86° (E) 06:24:11 435.800 - 435.900 CW/SSB, 435.910 FM
KITSAT 1 26 Jul 06:34:42 06:41:47 35° 108° (ESE) 06:48:53 435.175 FM
Hamsat 26 Jul 06:41:34 06:45:22 30° 96° (E) 06:49:11 145.90 MHz
Uosat F 26 Jul 07:01:47 07:05:20 20° 299° (WNW) 07:08:53 435.120 FM
STRAND 1 26 Jul 07:26:29 07:31:35 62° 258° (WSW) 07:36:43 ?
MaSat-1 26 Jul 07:39:38 07:44:58 68° 60° (ENE) 07:50:05 437.345 MHz
AO-7 26 Jul 07:44:01 07:50:46 29° 307° (NW) 07:57:31 29.400 - 29.500 MHz
SO-67 26 Jul 07:45:53 07:48:39 22° 94° (E) 07:51:23 435.3500 MHz FM
ISS 26 Jul 07:48:38 07:51:54 48° 218° (SW) 07:55:08 145.800 FM
JAS-2 26 Jul 08:00:33 08:06:47 74° 287° (WNW) 08:12:16 435.800 - 435.900 CW/SSB, 435.910 FM
Hamsat 26 Jul 08:17:41 08:21:14 26° 292° (WNW) 08:24:48 145.90 MHz
KITSAT 1 26 Jul 08:28:49 08:36:47 60° 309° (NW) 08:44:49 435.175 FM
Saudisat 1A 26 Jul 09:08:53 09:13:18 79° 123° (ESE) 09:17:45 436.775 MHz
MaSat-1 26 Jul 09:18:15 09:21:45 18° 259° (WSW) 09:25:10 437.345 MHz
SO-67 26 Jul 09:18:52 09:21:40 23° 291° (WNW) 09:24:26 435.3500 MHz FM
Sapphire 26 Jul 09:20:16 09:23:55 18° 38° (NE) 09:27:32 437.095 MHz 1200 baud AX-25 AFSK
JAS-2 26 Jul 09:47:59 09:50:34 13° 309° (NW) 09:53:03 435.800 - 435.900 CW/SSB, 435.910 FM
PCSat 26 Jul 09:53:30 09:58:14 29° 46° (NE) 10:02:56 145.825 MHz
HO-68 26 Jul 09:57:28 10:04:19 46° 99° (E) 10:11:05 435.675 MHz FM
UKube-1 26 Jul 10:17:55 10:22:07 45° 99° (E) 10:26:16 145.840 MHz, 145.915 MHz
KITSAT 1 26 Jul 10:28:12 10:34:04 21° 334° (NNW) 10:39:57 435.175 FM
Saudisat 1A 26 Jul 10:50:25 10:53:26 18° 323° (NW) 10:56:28 436.775 MHz
Sapphire 26 Jul 11:02:43 11:08:11 84° 59° (ENE) 11:13:36 437.095 MHz 1200 baud AX-25 AFSK
Oscar 11 26 Jul 11:06:21 11:10:42 80° 103° (ESE) 11:15:02 145.825 FM, Beacon 2401.500 USB
FUNcube-1 26 Jul 11:19:27 11:23:23 39° 98° (E) 11:27:19 145.950 - 145.970 MHz USB
PCSat 26 Jul 11:36:39 11:41:53 50° 246° (WSW) 11:47:05 145.825 MHz
HO-68 26 Jul 11:45:26 11:51:53 38° 298° (WNW) 11:58:18 435.675 MHz FM
UKube-1 26 Jul 11:54:56 11:58:00 19° 297° (WNW) 12:01:04 145.840 MHz, 145.915 MHz
Oscar 19 26 Jul 12:26:50 12:29:32 15° 58° (ENE) 12:32:14 437.125 CW, 437.150 USB
KITSAT 1 26 Jul 12:29:01 12:33:13 15° 5° (N) 12:37:26 435.175 FM
RS-15 26 Jul 12:40:56 12:47:55 19° 99° (E) 12:54:48 29.354 - 29.394 USB, Beacon 29.352 USB
Oscar 11 26 Jul 12:44:51 12:46:15 11° 300° (WNW) 12:47:40 145.825 FM, Beacon 2401.500 USB
Sapphire 26 Jul 12:48:04 12:50:51 14° 257° (WSW) 12:53:38 437.095 MHz 1200 baud AX-25 AFSK
Oscar 16 26 Jul 12:52:57 12:57:04 25° 64° (ENE) 13:01:13 437.025 USB, Beacon 2401.1428
FUNcube-1 26 Jul 12:56:35 12:59:32 19° 295° (WNW) 13:02:30 145.950 - 145.970 MHz USB
AO-Echo 26 Jul 13:05:40 13:08:56 17° 59° (ENE) 13:12:13 ?
ITAMSAT 1 26 Jul 13:08:43 13:12:02 17° 60° (ENE) 13:15:20 435.822 SSB
SO-50 26 Jul 13:13:50 13:17:38 28° 114° (ESE) 13:21:31 436.795 FM
JAS-1B 26 Jul 13:14:38 13:21:38 26° 51° (NE) 13:29:02 435.800 - 435.900 CW/SSB
AO-27 26 Jul 13:26:07 13:30:16 25° 63° (ENE) 13:34:25 436.795 MHz FM
Uribyol 2 26 Jul 13:27:47 13:32:02 26° 64° (ENE) 13:36:16 436.500 FM
Gurwin Techsat 1B 26 Jul 13:34:25 13:36:37 13° 56° (NE) 13:38:50 435.225 FM
Oscar 19 26 Jul 14:03:05 14:08:11 83° 256° (WSW) 14:13:21 437.125 CW, 437.150 USB
KITSAT 1 26 Jul 14:25:16 14:31:59 27° 34° (NE) 14:38:38 435.175 FM
Oscar 16 26 Jul 14:31:19 14:36:11 44° 261° (W) 14:41:05 437.025 USB, Beacon 2401.1428
AO-Echo 26 Jul 14:41:46 14:47:04 76° 257° (WSW) 14:52:25 ?
ITAMSAT 1 26 Jul 14:45:45 14:50:57 71° 257° (WSW) 14:56:11 435.822 SSB
RS-15 26 Jul 14:47:19 14:58:26 80° 120° (ESE) 15:09:21 29.354 - 29.394 USB, Beacon 29.352 USB
TMSAT-1 26 Jul 14:48:25 14:53:18 39° 68° (ENE) 14:58:12 436.925 FM
SO-50 26 Jul 14:53:53 14:58:04 37° 313° (NW) 15:02:21 436.795 FM
AO-7 26 Jul 15:00:11 15:06:54 28° 53° (NE) 15:13:36 29.400 - 29.500 MHz
Uosat F 26 Jul 15:01:17 15:03:35 13° 57° (ENE) 15:05:52 435.120 FM
JAS-1B 26 Jul 15:01:55 15:10:41 86° 73° (ENE) 15:20:36 435.800 - 435.900 CW/SSB
AO-27 26 Jul 15:04:27 15:09:29 47° 261° (W) 15:14:33 436.795 MHz FM
Uribyol 2 26 Jul 15:06:19 15:11:16 44° 261° (W) 15:16:14 436.500 FM
Gurwin Techsat 1B 26 Jul 15:10:26 15:15:45 82° 74° (ENE) 15:21:05 435.225 FM
UOSAT-12 26 Jul 15:29:56 15:34:20 47° 118° (ESE) 15:38:50 437.025 FM, 437.400 FM
Saudisat 1A 26 Jul 15:55:52 15:58:42 16° 36° (NE) 16:01:31 436.775 MHz
KITSAT 1 26 Jul 16:20:25 16:28:33 86° 58° (ENE) 16:36:38 435.175 FM
TMSAT-1 26 Jul 16:28:45 16:33:18 29° 265° (W) 16:37:53 436.925 FM
JAS-2 26 Jul 16:31:38 16:35:15 14° 52° (NE) 16:38:46 435.800 - 435.900 CW/SSB, 435.910 FM
Uosat F 26 Jul 16:36:34 16:41:37 90° 72° (ENE) 16:46:43 435.120 FM
AO-7 26 Jul 16:50:32 16:58:54 77° 253° (WSW) 17:07:20 29.400 - 29.500 MHz
Gurwin Techsat 1B 26 Jul 16:53:51 16:56:21 13° 272° (W) 16:58:52 435.225 FM
JAS-1B 26 Jul 16:55:32 17:02:21 24° 275° (W) 17:09:48 435.800 - 435.900 CW/SSB
RS-15 26 Jul 17:01:52 17:11:55 39° 327° (NNW) 17:21:58 29.354 - 29.394 USB, Beacon 29.352 USB
UOSAT-12 26 Jul 17:10:45 17:14:42 27° 318° (NW) 17:18:43 437.025 FM, 437.400 FM
OPAL 26 Jul 17:16:58 17:21:59 61° 104° (ESE) 17:27:02 ?
